Flag for U.S.A. Weather past 2 weeks in Spartanburg, South Carolina, U.S.A.

Now
48 °F

Sunny.


Feels Like: 45 °F
Forecast: 33 / 49 °F
Wind: 8 mph from Northwest

Location: Spartanburg Memorial

Current Time: Jan 27, 2015 at 2:57:28 PM

Latest Report: Jan 27, 2015 at 2:35 PM


Visibility: 10 mi

Pressure: 29.85 "Hg

Humidity: 37%

Dew point: 23 °F

Location of SpartanburgLocation

Historic Weather in Spartanburg — Graph

°F

Spartanburg temperature yesterday

Maximum temperature yesterday: 55 °F (at 12:35 PM)
Minimum temperature yesterday: 37 °F (at 11:15 PM)
Average temperature yesterday: 46 °F

Past Weeks' High & Low Weather Summary

 TemperatureHumidityPressure
High70 °F (Jan 20, 2:15 PM)100% (Jan 12, 6:35 PM)30.37 "Hg (Jan 12, 6:35 PM)
Low32 °F (Jan 15, 6:15 AM)15% (Jan 19, 3:15 PM)29.60 "Hg (Jan 24, 5:35 AM)
Average45 °F62%30.04 "Hg
* Reported Jan 12 1:15 PM — Jan 27 1:35 PM, Spartanburg, Weather by CustomWeather, © 2014

Note: Actual official high and low records may vary slightly from our data, if they occured in-between our weather recording intervals... More about our weather records

Advertising

Spartanburg weather history for previous 24 hours

 ConditionsComfort  
Time TempWeatherWind HumidityBarometerVisibility
1:35 PM
Jan 27
46 °FSunny.13 mph40%29.86 "Hg10 mi
1:15 PM46 °FSunny.8 mph40%29.87 "Hg10 mi
12:35 PM43 °FScattered clouds.8 mph46%29.88 "Hg10 mi
12:15 PM43 °FScattered clouds.8 mph49%29.88 "Hg10 mi
11:35 AM41 °FPartly sunny.9 mph57%29.89 "Hg10 mi
11:15 AM41 °FBroken clouds.7 mph53%29.88 "Hg10 mi
10:35 AM39 °FScattered clouds.7 mph61%29.87 "Hg10 mi
10:15 AM37 °FScattered clouds.7 mph60%29.87 "Hg10 mi
9:35 AM37 °FScattered clouds.8 mph65%29.85 "Hg10 mi
9:15 AM37 °FScattered clouds.3 mph65%29.85 "Hg10 mi
8:35 AM36 °FSunny.No wind70%29.84 "Hg10 mi
8:15 AM36 °FSunny.No wind70%29.83 "Hg10 mi
7:35 AM34 °FScattered clouds.No wind75%29.82 "Hg10 mi
7:15 AM36 °FClear.5 mph70%29.81 "Hg10 mi
6:35 AM36 °FPassing clouds.No wind65%29.80 "Hg10 mi
6:15 AM36 °FPassing clouds.5 mph65%29.79 "Hg10 mi
5:35 AM36 °FPassing clouds.6 mph60%29.79 "Hg10 mi
5:15 AM36 °FPassing clouds.9 mph60%29.79 "Hg10 mi
4:35 AM36 °FClear.10 mph60%29.78 "Hg10 mi
4:15 AM36 °FPassing clouds.12 mph60%29.78 "Hg10 mi
3:35 AM36 °FClear.8 mph56%29.78 "Hg10 mi
3:15 AM36 °FClear.7 mph56%29.79 "Hg10 mi
2:35 AM36 °FClear.10 mph56%29.80 "Hg10 mi
2:15 AM36 °FClear.8 mph56%29.80 "Hg10 mi
1:35 AM36 °FClear.12 mph60%29.80 "Hg10 mi
1:15 AM36 °FClear.8 mph60%29.80 "Hg10 mi
12:35 AM37 °FPassing clouds.9 mph56%29.80 "Hg10 mi
12:15 AM37 °FPassing clouds.13 mph56%29.80 "Hg10 mi
11:15 PM
Jan 26
37 °FPassing clouds.23 mph56%29.79 "Hg10 mi
10:35 PM39 °FClear.7 mph52%29.80 "Hg10 mi
10:15 PM39 °FClear.14 mph52%29.80 "Hg10 mi
9:35 PM41 °FClear.14 mph49%29.80 "Hg10 mi
9:15 PM41 °FClear.13 mph49%29.79 "Hg10 mi
8:35 PM41 °FClear.9 mph57%29.78 "Hg10 mi
8:15 PM41 °FClear.14 mph57%29.78 "Hg10 mi
7:35 PM43 °FClear.14 mph53%29.78 "Hg10 mi
7:15 PM43 °FClear.17 mph53%29.77 "Hg10 mi
6:35 PM45 °FPassing clouds.15 mph53%29.74 "Hg10 mi
6:15 PM45 °FPassing clouds.13 mph53%29.72 "Hg10 mi
5:35 PM46 °FScattered clouds.18 mph53%29.70 "Hg10 mi
5:15 PM46 °FPartly sunny.14 mph53%29.69 "Hg10 mi
4:35 PM48 °FSunny.16 mph50%29.68 "Hg10 mi
4:15 PM52 °FSunny.16 mph47%29.66 "Hg10 mi
3:35 PM54 °FScattered clouds.16 mph41%29.65 "Hg10 mi
3:15 PM52 °FSunny.12 mph47%29.65 "Hg10 mi
2:35 PM55 °FSunny.14 mph41%29.64 "Hg10 mi
2:15 PM55 °FSunny.21 mph41%29.64 "Hg10 mi
Weather by CustomWeather, © 2014

See weather overviewHow to use our weather pages